Flag for Switzerland Weather past 2 weeks in Einsiedeln, Schwyz, Switzerland

Now
58 °F

Cool.


Feels Like: 59 °F
Forecast: 40 / 52 °F
Wind: 3 mph from Southeast

Location: Altdorf

Current Time: Sep 21, 2014 at 11:15:30 PM

Latest Report: Sep 21, 2014 at 10:00 PM


Visibility: N/A

Pressure: 30.06 "Hg

Humidity: 94%

Dew point: 56 °F

Location of EinsiedelnLocation

Historic Weather in Einsiedeln — Graph

°F

Einsiedeln temperature yesterday

Maximum temperature yesterday: 71 °F (at 3:00 PM)
Minimum temperature yesterday: 56 °F (at 7:00 AM)
Average temperature yesterday: 62 °F

Past Weeks' High & Low Weather Summary

 TemperatureHumidityPressure
High76 °F (Sep 18, 1:00 PM)98% (Sep 14, 8:00 AM)30.14 "Hg (Sep 14, 8:00 AM)
Low47 °F (Sep 14, 8:00 AM)38% (Sep 18, 1:00 PM)29.81 "Hg (Sep 17, 5:00 PM)
Average62 °F81%29.98 "Hg
* Reported Sep 6 10:00 PM — Sep 21 10:00 PM, Einsiedeln, Weather by CustomWeather, © 2014

Note: Actual official high and low records may vary slightly from our data, if they occured in-between our weather recording intervals... More about our weather records

Advertising

Einsiedeln weather history for previous 24 hours

 ConditionsComfort  
Time TempWeatherWind HumidityBarometerVisibility
10:00 PM
Sep 21
58 °FCool.3 mph94%30.06 "HgN/A
9:00 PM58 °FCool.5 mph94%30.05 "HgN/A
8:00 PM58 °FOvercast.2 mph92%30.03 "Hg11 mi
7:00 PM60 °FCool.3 mph87%30.03 "HgN/A
6:00 PM62 °FMild.14 mph79%30.01 "HgN/A
5:00 PM66 °FPartly sunny.5 mph70%29.96 "Hg12 mi
4:00 PM65 °FMild.14 mph72%29.97 "HgN/A
3:00 PM66 °FMild.5 mph79%29.96 "HgN/A
2:00 PM67 °FScattered clouds.2 mph78%29.96 "Hg16 mi
1:00 PM64 °FMild.5 mph83%30.02 "HgN/A
12:00 PM62 °FCool.1 mph86%30.04 "HgN/A
11:00 AM61 °FOvercast.1 mph92%30.05 "Hg11 mi
10:00 AM60 °FCool.3 mph94%30.07 "HgN/A
9:00 AM59 °FCool.3 mph95%30.06 "HgN/A
8:00 AM59 °FDrizzle. Overcast.5 mph95%30.08 "Hg9 mi
7:00 AM58 °FCool.2 mph98%30.08 "HgN/A
6:00 AM58 °FCool.1 mph98%30.05 "HgN/A
5:00 AM59 °FRain. Overcast.2 mph95%30.05 "Hg4 mi
4:00 AM59 °FCool.3 mph96%30.07 "HgN/A
3:00 AM60 °FCool.1 mph94%30.07 "HgN/A
2:00 AM60 °FRain. Overcast.3 mph96%30.09 "Hg4 mi
1:00 AM61 °FCool.1 mph93%30.06 "HgN/A
12:00 AM61 °FCool.5 mph96%30.07 "HgN/A
11:00 PM
Sep 20
62 °FRain. Overcast.2 mph95%30.07 "Hg6 mi
Weather by CustomWeather, © 2014

See weather overviewHow to use our weather pages